INTELSAT 35E (IS-35E)

Last updated on Sat Aug 15 2026 00:03:01 GMT+0000 (Coordinated Universal Time)

1 42818U 17041A 26226.41858741 .00000000 00000+0 00000+0 0 9990 2 42818 0.0235 111.6748 0001921 39.3739 287.9837 1.00269221 33395
UTC large
Height (km)
Speed (km/s)
/
Latitude / Longitude
Inclination (degrees)
Orbital Period (minutes)
Azimuth
Elevation
Range (km)
Doppler Factor

Next 0 passes for location: London (51.5072 / 0.1276)

No passes found over London.
INTELSAT 35E (IS-35E)